Home   Weather   Budapest   Past weeks

Flag for Hungary Past Weather in Budapest, Hungary — Yesterday and Last 2 Weeks

Now
27 °F

Clear.


Feels Like: 23 °F
Forecast: 31 / 45 °F
Wind: 3 mph from North

Location: Ferenc Liszt International Airport

Current Time: Dec 11, 2016 at 5:33:51 am

Latest Report: Dec 11, 2016 at 5:00 am


Visibility: 4 mi

Pressure: 30.09 "Hg

Humidity: 93%

Dew Point: 25 °F

Location of BudapestLocation

Past Weather in Budapest — Graph

°F

Budapest Temperature Yesterday

Maximum temperature yesterday: 52 °F (at 1:00 pm)
Minimum temperature yesterday: 28 °F (at 7:30 am)
Average temperature yesterday: 41 °F

High & Low Weather Summary for the Past Weeks

 TemperatureHumidityPressure
High52 °F (Dec 10, 1:00 pm)100% (Nov 26, 4:30 am)30.74 "Hg (Nov 26, 4:30 am)
Low14 °F (Dec 4, 3:30 am)36% (Nov 29, 1:00 pm)29.65 "Hg (Dec 2, 6:30 am)
Average33 °F80%30.27 "Hg
* Reported Nov 26 4:00 am — Dec 11 4:30 am, Budapest, Weather by CustomWeather, © 2016

Note: Actual official high and low records may vary slightly from our data, if they occured in-between our weather recording intervals... More about our weather records

Advertising

Budapest Weather History for the Previous 24 Hours

Scroll right to see more
 ConditionsComfort  
Time TempWeatherWind HumidityBarometerVisibility
4:30 am
Sun, Dec 11
25 °FClear.5 mph93%30.09 "Hg4 mi
4:00 am27 °FClear.5 mph93%30.09 "Hg4 mi
3:30 am27 °FClear.3 mph93%30.09 "Hg4 mi
3:00 am27 °FClear.3 mph93%30.12 "Hg4 mi
2:30 am28 °FClear.3 mph93%30.12 "Hg4 mi
2:00 am27 °FClear.3 mph93%30.15 "Hg4 mi
1:30 am28 °FClear.3 mph86%30.15 "Hg4 mi
1:00 am28 °FClear.1 mph93%30.15 "Hg4 mi
12:30 am30 °FClear.1 mph86%30.15 "Hg4 mi
12:00 am36 °FClear.2 mph75%30.15 "Hg4 mi
11:30 pm
Sat, Dec 10
36 °FClear.3 mph81%30.15 "Hg5 mi
11:00 pm36 °FClear.2 mph87%30.18 "Hg5 mi
10:30 pm36 °FClear.3 mph87%30.18 "Hg5 mi
10:00 pm39 °FClear.2 mph75%30.15 "Hg5 mi
9:30 pm39 °FClear.1 mph81%30.18 "Hg4 mi
9:00 pm37 °FClear.5 mph75%30.18 "Hg4 mi
8:30 pm39 °FClear.No wind81%30.18 "Hg4 mi
8:00 pm39 °FClear.5 mph81%30.18 "Hg5 mi
7:30 pm39 °FClear.7 mph81%30.21 "Hg5 mi
7:00 pm39 °FClear.8 mph81%30.21 "Hg10 mi
6:30 pm45 °FClear.5 mph71%30.21 "Hg10 mi
6:00 pm39 °FClear.7 mph81%30.21 "Hg10 mi
5:30 pm45 °FClear.8 mph71%30.21 "Hg10 mi
5:00 pm46 °FClear.8 mph66%30.21 "Hg10 mi
4:30 pm48 °FClear.6 mph62%30.21 "Hg10 mi
4:00 pm48 °FClear.6 mph62%30.21 "Hg10 mi
3:30 pm46 °FSunny.8 mph66%30.21 "Hg10 mi
3:00 pm48 °FSunny.10 mph62%30.21 "Hg10 mi
2:30 pm50 °FSunny.10 mph58%30.21 "Hg10 mi
2:00 pm50 °FSunny.10 mph58%30.21 "Hg10 mi
1:30 pm50 °FSunny.10 mph58%30.24 "Hg10 mi
1:00 pm52 °FScattered clouds.10 mph54%30.24 "HgN/A
12:30 pm50 °FPartly sunny.6 mph62%30.24 "HgN/A
12:00 pm50 °FScattered clouds.9 mph67%30.27 "HgN/A
11:30 am48 °FScattered clouds.8 mph66%30.27 "HgN/A
11:00 am46 °FScattered clouds.7 mph76%30.27 "Hg4 mi
10:30 am41 °FScattered clouds.1 mph81%30.30 "Hg4 mi
10:00 am41 °FFog.1 mph81%30.30 "Hg3 mi
9:30 am36 °FFog.3 mph93%30.30 "Hg3 mi
9:00 am34 °FFog.2 mph93%30.30 "Hg2 mi
8:30 am32 °FIce fog.3 mph93%30.30 "Hg2 mi
8:00 am28 °FIce fog.2 mph100%30.30 "Hg2 mi
7:30 am28 °FIce fog.7 mph100%30.30 "Hg2 mi
7:00 am32 °FIce fog.5 mph100%30.30 "Hg2 mi
6:30 am34 °FFog.6 mph100%30.30 "Hg3 mi
6:00 am36 °FPassing clouds.5 mph87%30.30 "Hg4 mi
5:30 am36 °FPassing clouds.2 mph100%30.30 "Hg4 mi
5:00 am39 °FPassing clouds.2 mph93%30.30 "HgN/A
Weather by CustomWeather, © 2016

See weather overviewHow to use our weather pages